SCP
0 0 0 0 0 0 0 0 0 0 0 0 0 0 0 0 0 0 0 0 0 0 0 0 0 0 0 0 0 0 0 0 0 0 0 0 0 0 0 0 0 0 0 0
0 0 0 0 0 0 0 0 0 0 0 0 0 0 0 0 0 0 0 0 0 0 0 0 0 0 0 0 0 0 0 0 0 0 0 0 0 0 0 0 0 0 0 0
0 0 0 0 0 0 0 0 0 0 0 0 0 0 0 0 0 0 0 0 0 0 0 0 0 0 0 0 0 0 0 0 0 0 0 0 0 0 0 0 0 0 0 0
0 0 0 0 0 0 0 0 0 0 0 0 0 0 0 0 0 0 0 0 0 0 0 0 0 0 0 0 0 0 0 0 0 0 0 0 0 0 0 0 0 0 0 0
0 0 0 0 0 0 0 0 0 0 0 0 0 0 0 0 0 0 0 0 0 0 0 0 0 0 0 0 0 0 0 0 0 0 0 0 0 0 0 0 0 0 0 0
0 0 0 0 0 0 0 0 0 0 0 0 0 0 0 0 0 0 0 0 0 0 0 0 0 0 0 0 0 0 0 0 0 0 0 0 0 0 0 0 0 0 0 0
0 0 0 0 0 0 0 0 0 0 0 0 0 0 0 0 0 0 0 0 0 0 0 0 0 0 0 0 0 0 0 0 0 0 0 0 0 0 0 0 0 0 0 0
0 0 0 0 0 0 0 0 0 0 0 0 0 0 0 0 0 0 0 0 0 0 0 0 0 0 0 0 0 0 0 0 0 0 0 0 0 0 0 0 0 0 0 0
0 0 0 0 0 0 0 0 0 0 0 0 0 0 0 0 0 0 0 0 0 0 0 0 0 0 0 0 0 0 0 0 0 0 0 0 0 0 0 0 0 0 0 0
0 0 0 0 0 0 0 0 0 0 0 0 0 0 0 0 0 0 0 0 0 0 0 0 0 0 0 0 0 0 0 0 0 0 0 0 0 0 0 0 0 0 0 0
0 0 0 0 0 0 0 0 0 0 0 0 0 0 0 0 0 0 0 0 0 0 0 0 0 0 0 0 0 0 0 0 0 0 0 0 0 0 0 0 0 0 0 0
0 0 0 0 0 0 0 0 0 0 0 0 0 0 0 0 0 0 0 0 0 0 0 0 0 0 0 0 0 0 0 0 0 0 0 0 0 0 0 0 0 0 0 0
0 0 0 0 0 0 0 0 0 0 0 0 0 0 0 0 0 0 0 0 0 0 0 0 0 0 0 0 0 0 0 0 0 0 0 0 0 0 0 0 0 0 0 0
0 0 0 0 0 0 0 0 0 0 0 0 0 0 0 0 0 0 0 0 0 0 0 0 0 0 0 0 0 0 0 0 0 0 0 0 0 0 0 0 0 0 0 0
0 0 0 0 0 0 0 0 0 0 0 0 0 0 0 0 0 0 0 0 0 0 0 0 0 0 0 0 0 0 0 0 0 0 0 0 0 0 0 0 0 0 0 0
0 0 0 0 0 0 0 0 0 0 0 0 0 0 0 0 0 0 0 0 0 0 0 0 0 0 0 0 0 0 0 0 0 0 0 0 0 0 0 0 0 0 0 0
0 0 0 0 0 0 0 0 0 0 0 0 0 0 0 0 0 0 0 0 0 0 0 0 0 0 0 0 0 0 0 0 0 0 0 0 0 0 0 0 0 0 0 0
0 0 0 0 0 0 0 0 0 0 0 0 0 0 0 0 0 0 0 0 0 0 0 0 0 0 0 0 0 0 0 0 0 0 0 0 0 0 0 0 0 0 0 0
0 0 0 0 0 0 0 0 0 0 0 0 0 0 0 0 0 0 0 0 0 0 0 0 0 0 0 0 0 0 0 0 0 0 0 0 0 0 0 0 0 0 0 0
0 0 0 0 0 0 0 0 0 0 0 0 0 0 0 0 0 0 0 0 0 0 0 0 0 0 0 0 0 0 0 0 0 0 0 0 0 0 0 0 0 0 0 0
0 0 0 0 0 0 0 0 0 0 0 0 0 0 0 0 0 0 0 0 0 0 0 0 0 0 0 0 0 0 0 0 0 0 0 0 0 0 0 0 0 0 0 0
0 0 0 0 0 0 0 0 0 0 0 0 0 0 0 0 0 0 0 0 0 0 0 0 0 0 0 0 0 0 0 0 0 0 0 0 0 0 0 0 0 0 0 0
0 0 0 0 0 0 0 0 0 0 0 0 0 0 0 0 0 0 0 0 0 0 0 0 0 0 0 0 0 0 0 0 0 0 0 0 0 0 0 0 0 0 0 0
-0 0 0 0 0 0 0 0 0 0 0 0 0 0 0 0 0 0 0 0 0 0 0 0 0 0 0 0 0 0 0 0 0 0 0 0 0 0 0 0 0 0 0 0
-0 0 0 0 0 0 0 0 0 0 0 0 0 0 0 0 0 0 0 0 0 0 0 0 0 0 0 0 0 0 0 0 0 0 0 0 0 0 0 0 0 0 0 0
-0 -0 0 0 0 0 0 0 0 0 0 -0 -0 -0 0 0 0 0 0 0 0 0 0 0 0 0 0 0 0 0 0 0 0 0 0 0 0 0 0 0 0 0 0 0
0 0 0 0 0 0 0 0 0 0 0 -0 -0 -0 0 0 0 0 0 0 0 0 0 0 0 0 0 0 0 0 0 0 0 0 0 0 0 0 0 0 0 0 0 0
Wind_Speed
3 2 5 6 7 10 11 9 9 8 7 8 8 9 9 8 8 7 7 7 8 7 6 6 5 5 4 4 4 4 5 5 4 4 5 5 6 6 6 7 8 7 7 8
1 2 4 5 8 11 12 11 10 7 8 7 6 5 6 7 9 9 9 9 8 8 8 7 7 6 5 4 4 4 5 4 4 4 5 5 5 6 6 7 7 7 7 7
2 2 1 8 11 14 9 9 10 15 13 4 4 8 10 10 10 10 10 9 10 9 8 8 7 7 6 5 5 5 5 4 4 4 5 5 5 5 6 6 6 6 6 7
2 1 7 9 4 8 10 10 10 8 7 8 10 8 7 7 9 9 9 9 9 8 8 7 6 6 6 6 5 5 5 5 4 5 5 5 5 5 4 4 4 4 5 5
3 3 8 8 4 6 7 8 11 13 9 6 5 3 2 4 5 7 7 7 7 7 7 7 8 7 7 6 6 5 5 5 5 5 5 5 4 4 3 3 3 3 2 3
3 3 6 6 3 2 3 6 5 9 10 7 7 5 5 4 4 4 5 6 7 7 6 8 7 8 8 7 6 6 5 5 5 5 5 5 4 3 2 2 2 2 2 1
4 5 8 7 3 3 3 6 4 3 7 8 8 6 4 6 4 4 5 6 7 8 7 7 8 8 8 7 7 6 6 5 5 5 5 4 4 3 3 2 2 2 1 1
5 6 10 4 4 5 6 2 1 2 3 5 4 4 5 5 6 6 6 5 7 7 6 6 7 8 8 7 6 6 6 6 5 5 4 4 4 3 2 3 3 2 1 0
8 9 6 4 6 5 4 3 1 2 3 5 5 4 5 5 6 6 7 6 6 6 6 6 7 8 9 7 7 7 6 6 5 5 4 4 4 4 2 2 2 2 2 1
4 7 6 5 4 3 3 3 3 3 3 4 4 4 5 5 6 6 7 7 7 7 7 7 7 7 7 7 8 8 7 6 5 5 4 3 3 3 3 3 3 3 2 2
5 5 4 4 5 5 2 2 3 3 2 3 3 4 4 4 6 6 7 7 7 8 9 9 8 8 7 8 9 8 7 6 6 5 5 4 3 3 4 4 5 4 3 3
6 6 4 5 3 3 4 4 4 3 2 1 2 3 3 4 4 5 6 7 7 8 8 8 8 8 8 9 10 9 7 6 5 5 4 4 3 2 4 5 5 6 6 5
5 2 3 2 0 2 3 3 3 2 2 1 1 1 2 3 3 4 5 7 9 10 9 8 9 9 9 10 10 10 8 7 5 5 5 5 4 4 3 3 5 6 7 7
1 1 1 2 1 2 3 3 3 2 1 0 1 1 1 2 2 4 6 7 7 7 8 8 9 10 10 10 10 10 8 9 8 6 6 5 5 4 4 3 3 3 5 8
2 2 3 2 2 2 2 2 2 1 1 1 1 1 2 3 4 5 5 4 5 6 7 8 9 9 9 10 11 10 8 6 6 6 5 5 5 4 4 4 4 3 2 4
1 1 2 3 3 2 2 1 1 1 1 2 2 3 3 4 4 4 3 4 5 7 8 8 9 8 9 10 10 8 8 11 9 6 6 5 5 5 5 4 4 4 4 4
2 2 2 2 3 2 1 1 0 1 2 3 4 4 4 4 4 4 4 4 5 6 6 7 7 6 9 10 10 7 6 8 12 7 6 6 5 6 5 5 5 5 4 5
1 2 2 2 2 2 1 1 2 2 2 3 4 4 3 3 4 4 4 3 3 3 4 5 5 6 8 9 8 6 6 6 7 7 6 6 5 5 5 5 5 5 4 4
4 4 4 4 3 2 2 1 2 2 3 4 4 4 4 3 4 4 3 2 3 4 4 3 6 6 7 9 9 6 6 7 6 5 5 8 7 5 5 5 5 5 5 4
4 5 5 4 4 3 2 2 2 3 3 4 4 4 4 4 4 3 2 3 3 3 2 3 4 5 6 7 10 6 7 7 7 6 6 6 6 5 5 6 5 5 5 5
3 3 4 3 3 3 2 2 2 3 4 4 3 4 4 4 4 3 2 3 3 3 2 3 2 3 4 5 9 5 6 6 6 6 6 6 6 6 6 6 6 5 5 5
1 2 2 2 1 1 2 2 2 3 3 3 4 4 4 4 4 3 2 2 3 4 2 2 2 3 5 6 5 5 6 6 6 6 6 6 6 6 6 6 6 5 5 5
1 1 1 0 0 1 1 2 2 2 3 3 3 4 4 4 3 3 3 3 3 5 3 2 3 6 7 5 4 5 6 6 6 6 6 6 6 6 6 6 5 5 5 5
1 1 1 0 0 0 1 2 3 2 3 3 3 3 3 3 3 2 3 6 7 7 3 4 6 7 7 3 4 5 5 6 6 5 5 5 5 5 5 5 5 5 5 6
2 2 2 2 2 2 2 2 2 2 3 2 3 3 2 2 3 3 4 4 7 6 3 4 6 6 3 2 4 4 5 5 5 5 5 5 5 5 5 5 5 5 5 5
3 3 3 3 3 2 2 2 2 2 2 2 3 2 3 3 3 3 3 4 5 6 3 3 3 3 1 2 3 4 4 5 6 6 6 6 6 6 5 5 6 5 5 5
3 3 3 3 3 3 3 2 3 3 2 2 3 3 3 3 3 3 4 3 3 3 3 3 2 2 2 2 2 3 3 4 4 4 4 5 5 5 5 6 5 4 4 5
Wind_Direction
221 196 163 196 202 194 200 203 202 225 226 234 214 197 190 186 179 177 183 185 183 177 171 162 152 144 137 128 119 113 104 94 85 77 71 66 59 56 55 54 54 47 46 46
266 218 202 231 225 213 217 218 224 241 251 240 220 196 192 189 184 191 198 197 188 178 172 169 163 155 145 140 133 124 115 109 102 93 83 76 70 66 64 59 53 50 48 46
259 288 344 261 225 211 210 210 203 227 235 214 199 198 199 198 197 201 203 196 186 181 176 171 167 157 154 150 136 128 124 121 114 107 98 88 86 79 71 65 58 53 48 46
169 124 238 244 233 205 217 229 213 224 223 206 212 214 207 197 198 207 199 187 181 171 164 158 155 150 146 142 140 138 137 133 126 118 112 104 97 89 79 73 69 62 51 43
169 228 274 284 251 187 197 252 224 223 223 213 204 162 246 221 203 201 190 174 167 160 154 152 154 152 145 144 145 147 149 146 141 137 132 126 118 108 99 97 86 74 63 51
180 219 250 260 279 181 137 271 257 215 210 192 159 183 235 196 160 149 139 139 142 142 142 152 158 152 150 155 158 162 160 153 147 147 147 146 141 133 127 122 118 108 83 50
200 237 264 258 253 113 170 256 305 212 192 178 186 200 181 143 134 135 132 136 141 146 153 163 159 156 160 164 172 165 154 149 149 150 152 151 144 144 145 137 125 122 111 39
186 218 252 253 151 186 223 255 9 81 135 149 150 127 131 143 146 147 145 145 150 153 160 163 162 162 169 178 169 156 154 156 158 159 160 152 147 150 150 147 142 150 145 281
197 218 240 222 209 226 189 183 182 124 120 129 135 154 162 168 169 171 168 166 163 162 166 173 175 173 179 179 163 159 160 165 166 164 162 157 160 164 160 160 165 182 188 221
241 258 256 247 238 228 200 188 172 154 147 148 157 172 183 183 183 184 182 179 173 172 181 188 187 185 182 170 167 166 171 174 171 169 168 167 171 172 169 178 181 190 203 220
244 269 286 265 228 218 197 151 136 128 141 156 163 179 189 196 197 195 191 186 184 190 196 196 189 189 180 172 170 174 177 178 177 177 173 175 182 193 187 201 192 193 204 206
224 227 214 243 249 191 171 169 160 148 141 130 165 197 200 211 207 200 196 189 193 199 200 196 190 193 185 179 177 177 180 183 181 177 176 175 175 196 223 211 220 216 208 209
232 242 213 228 12 123 152 155 145 143 154 183 248 222 218 221 212 205 202 198 203 204 202 195 193 196 190 183 182 185 186 184 181 180 180 181 181 186 209 243 245 242 240 244
214 149 179 206 185 115 122 121 112 94 70 51 268 265 242 238 231 221 220 214 208 203 200 197 198 202 192 183 185 189 187 189 186 188 186 187 190 193 195 204 228 256 260 259
282 218 192 167 128 107 100 103 98 74 26 5 357 318 283 261 254 248 240 221 204 203 204 201 206 205 187 184 187 189 188 189 188 185 186 188 188 190 197 207 216 229 247 269
252 95 124 141 156 140 114 107 112 333 332 319 316 304 289 275 269 264 248 211 203 213 211 208 213 203 184 185 187 190 194 196 186 184 185 187 188 193 199 207 217 224 232 237
182 190 183 186 182 159 126 103 74 327 321 310 302 301 296 291 284 275 264 240 228 228 218 213 213 192 183 187 188 191 189 194 192 187 191 191 192 199 203 205 215 226 232 236
191 179 167 155 151 134 96 59 34 1 334 320 317 313 305 293 284 282 277 266 254 254 239 224 207 188 189 190 190 187 185 188 189 191 191 195 198 200 201 209 218 229 237 246
73 79 78 82 89 98 86 48 13 353 341 333 325 315 305 299 295 291 286 259 248 258 259 234 213 196 195 195 187 184 183 186 190 191 190 205 207 202 205 210 219 225 231 235
67 71 71 67 62 61 54 25 10 3 353 344 336 330 325 321 317 308 292 263 253 258 258 234 215 206 201 197 189 184 186 191 195 193 193 199 204 205 209 215 220 225 229 234
74 73 71 69 63 52 40 20 9 357 348 348 344 331 321 320 325 322 309 292 299 297 280 253 225 213 200 198 194 187 189 193 195 195 196 202 207 210 213 217 222 227 230 234
81 82 75 64 56 36 21 14 2 349 346 346 343 337 331 328 329 321 296 285 304 306 295 256 238 223 215 205 192 189 193 195 197 195 199 202 206 212 217 218 222 228 231 233
141 130 115 58 354 334 0 2 349 340 337 335 333 332 328 320 316 316 314 319 312 305 298 260 257 246 233 209 192 194 197 200 201 201 203 206 210 213 216 219 222 226 230 234
209 208 220 270 305 263 304 321 328 329 327 321 323 327 325 321 317 308 299 315 323 319 300 282 276 260 241 199 191 196 201 205 205 204 205 208 211 214 217 220 224 226 230 236
224 225 228 228 235 245 259 287 305 316 324 319 321 325 324 310 298 305 310 311 320 325 311 298 291 278 248 198 197 202 204 208 207 204 206 209 213 216 219 221 224 227 230 234
229 231 233 231 231 233 237 248 266 283 299 306 308 306 312 312 309 309 311 315 318 323 319 300 294 284 250 217 208 207 208 218 227 219 211 212 216 217 221 224 227 228 232 235
236 235 238 247 240 225 221 227 242 258 265 277 289 295 305 311 314 318 321 320 321 320 314 310 304 286 261 236 223 217 213 213 216 217 213 213 215 219 222 224 227 229 232 237